Wind_Speed
16 16 16 16 16 16 16 15 16 15 16 16 15 15 16 15 15 16 15 15 15 15 16 16 16 16 16 15 15 16 16 16 16 16 16 17 17 17
17 17 17 17 17 17 17 17 17 16 16 16 16 17 17 16 16 16 16 17 16 16 16 16 16 16 16 16 16 16 16 16 16 16 17 17 17 18
17 17 17 17 17 18 18 18 18 18 17 17 17 17 17 18 18 17 18 18 18 17 17 17 17 18 18 18 18 17 17 17 17 17 17 18 18 19
18 18 18 18 18 18 18 18 19 19 18 18 19 19 19 19 19 19 19 19 19 18 18 18 19 19 19 19 19 19 19 19 19 19 19 18 18 19
19 19 19 20 19 19 20 20 20 20 20 20 20 20 20 20 20 20 20 20 20 20 20 20 20 20 20 20 20 20 20 20 20 20 20 20 20 20
20 20 20 20 20 20 20 20 21 21 21 21 21 21 21 21 21 21 21 21 21 21 21 22 21 21 22 21 21 21 21 21 21 21 21 21 21 21
19 19 20 21 21 21 21 21 21 21 21 22 22 22 22 22 22 22 22 22 23 23 23 23 23 23 23 22 23 23 22 22 23 23 23 23 23 22
20 19 19 19 20 21 22 22 22 22 22 22 22 22 22 23 23 23 23 23 23 24 24 24 25 24 24 24 24 24 23 23 23 24 24 24 24 24
21 21 22 20 20 21 22 22 23 23 23 23 23 23 23 23 24 24 24 24 24 24 25 25 24 24 24 24 25 25 24 24 24 24 24 25 25 26
20 21 22 22 22 21 22 22 23 24 24 24 24 24 24 24 25 25 25 25 25 24 25 25 25 25 24 24 25 25 25 25 25 25 25 25 26 26
21 21 21 22 23 22 22 22 23 23 24 25 25 25 25 25 25 26 26 26 26 26 25 26 26 26 26 25 25 25 25 25 26 26 27 27 27 27
22 22 22 23 23 24 24 24 24 25 26 26 27 27 28 27 27 27 27 28 28 28 27 28 27 27 27 27 28 28 27 27 28 28 28 28 28 28
23 24 24 24 24 25 25 25 25 26 27 28 28 29 29 29 29 29 29 29 30 30 30 29 29 29 29 29 30 31 31 30 30 30 31 30 30 31
24 24 25 25 25 25 26 27 28 28 28 28 29 30 31 31 31 31 31 31 31 31 31 31 31 31 31 31 32 32 32 32 32 32 32 32 33 33
26 26 26 26 27 27 28 29 30 30 31 30 30 30 32 32 32 32 32 33 33 33 33 32 33 33 34 34 34 33 33 34 34 34 34 34 35 35
27 27 28 28 29 29 29 30 30 31 32 31 32 33 33 33 33 34 33 33 33 33 33 34 35 35 35 36 37 37 37 36 37 37 37 37 37 37
28 29 29 29 30 30 30 31 31 31 32 32 33 33 33 33 34 35 35 35 34 35 35 36 38 38 38 38 39 39 39 39 39 40 40 39 39 39
30 30 31 31 32 32 32 31 32 32 32 33 33 33 33 34 34 35 35 36 36 37 38 39 40 41 41 41 41 41 40 41 42 42 42 41 41 42
30 31 32 33 33 33 33 33 32 32 32 32 32 33 33 34 35 35 36 36 37 38 39 41 41 42 42 42 42 43 44 44 44 44 43 43 42 42
31 32 32 33 33 33 33 34 33 33 33 33 34 34 34 35 36 36 36 37 37 37 37 39 40 41 42 42 42 42 44 45 44 44 45 45 44 43
31 32 32 32 33 34 34 34 34 34 34 35 35 36 36 36 36 37 37 37 37 37 37 38 39 40 41 42 42 42 43 44 45 45 45 45 45 44
32 32 32 33 33 33 33 34 34 34 35 35 36 37 37 37 37 37 37 37 37 38 38 38 39 40 41 42 42 43 43 44 44 44 44 44 43 43
32 33 33 33 33 34 34 34 34 35 35 36 36 37 37 37 37 37 37 37 38 38 39 39 40 41 41 41 42 42 42 41 42 42 41 41 41 41
Wind_Direction
262 259 256 255 253 254 254 253 252 251 251 250 252 253 254 255 257 257 257 258 259 259 261 262 263 262 262 263 264 263 264 263 264 265 267 269 270 271
262 259 258 257 257 255 254 254 253 253 254 253 253 253 254 255 257 257 259 261 263 263 262 262 264 263 262 263 263 263 265 265 265 266 267 268 270 272
262 261 260 257 258 258 256 255 255 255 255 255 255 255 255 256 258 256 256 259 262 262 262 261 263 264 264 263 264 266 268 268 267 266 267 267 269 270
262 261 260 259 258 259 258 256 255 256 255 255 255 256 256 256 257 258 258 258 258 260 260 261 262 263 263 262 264 265 267 268 268 268 268 268 269 272
260 259 259 259 258 258 257 256 256 257 256 255 255 256 257 258 259 258 259 258 258 258 259 261 262 263 263 262 261 263 264 266 267 268 266 267 269 272
261 260 259 259 258 257 256 256 256 257 256 256 257 257 258 258 259 260 261 261 260 259 259 260 262 263 262 261 262 262 264 265 266 266 266 267 269 270
264 262 260 259 258 256 255 255 255 256 256 257 257 258 258 258 260 261 262 262 263 262 260 261 261 261 262 263 263 263 265 266 266 266 265 266 267 268
267 265 262 261 260 257 256 255 255 255 256 257 257 258 260 260 261 262 262 263 263 263 263 262 262 262 263 263 263 264 266 268 268 267 266 266 267 268
269 267 264 262 261 259 258 257 257 257 256 257 257 258 260 261 261 262 262 263 264 265 264 262 263 263 262 262 263 265 268 269 269 269 268 267 267 269
270 269 267 264 262 262 259 258 257 257 257 256 257 258 259 260 261 262 262 264 266 266 266 265 264 264 264 265 266 269 270 270 269 269 269 268 269 270
268 268 268 266 263 261 259 259 259 258 258 258 258 259 260 260 261 262 263 264 265 265 265 265 265 264 263 264 266 268 271 270 269 268 269 270 271 271
268 269 268 266 266 265 264 264 263 260 260 260 260 260 261 262 262 263 263 264 265 265 265 264 264 263 262 264 266 267 268 269 270 269 269 270 271 271
270 270 269 268 267 267 266 266 265 263 262 261 261 261 262 262 263 263 263 263 263 265 265 264 263 263 263 264 266 267 267 268 269 271 271 270 270 272
272 271 270 269 269 269 268 266 266 265 265 263 262 262 262 262 263 263 264 265 266 266 265 264 264 264 265 265 266 266 267 269 270 271 271 272 272 272
272 271 271 271 270 270 270 269 268 268 267 266 265 265 265 263 263 263 264 265 266 266 266 265 265 265 266 266 267 266 267 268 270 271 271 272 273 273
272 271 272 272 272 271 271 270 269 269 268 268 267 267 266 265 264 264 265 266 266 265 265 266 266 267 267 267 268 268 268 269 270 271 271 272 273 274
273 272 271 271 273 273 272 272 270 270 269 269 268 268 267 267 266 264 264 265 266 266 266 266 267 268 268 268 269 269 269 270 271 270 271 271 272 273
274 274 273 272 274 274 273 272 271 270 269 269 269 269 268 268 268 267 266 266 267 267 267 268 268 269 269 270 270 270 271 271 271 271 272 272 272 272
274 274 274 274 274 274 273 272 271 271 270 269 269 269 269 269 269 269 268 268 269 270 269 269 269 269 269 270 270 270 271 271 271 271 271 272 272 271
274 275 276 275 275 275 273 272 272 271 270 270 270 271 270 270 270 270 270 270 271 271 271 271 271 271 271 272 272 271 272 272 272 272 272 273 273 272
276 276 277 276 275 275 275 273 272 271 271 270 270 270 270 270 271 271 271 271 271 271 272 272 272 272 272 273 272 272 272 273 273 273 273 273 272 272
277 277 278 278 277 276 276 275 273 272 272 272 272 271 271 271 271 272 271 272 271 272 272 272 273 273 274 274 273 274 274 273 273 273 273 273 272 271
278 278 278 278 277 277 276 276 274 273 273 272 273 273 273 273 272 272 272 272 272 272 273 273 274 274 275 275 275 275 274 273 273 273 273 273 273 272
Height
5796 5796 5796 5797 5797 5797 5798 5799 5799 5800 5800 5800 5801 5801 5801 5802 5802 5803 5803 5803 5804 5804 5804 5804 5804 5805 5805 5805 5805 5805 5805 5805 5805 5805 5805 5805 5805 5805
5792 5792 5792 5792 5792 5793 5793 5794 5794 5795 5796 5796 5796 5797 5797 5798 5798 5798 5799 5799 5799 5800 5800 5800 5800 5800 5801 5801 5801 5801 5801 5801 5801 5801 5801 5801 5800 5800
5787 5787 5787 5787 5787 5788 5788 5789 5789 5790 5791 5792 5792 5792 5793 5793 5794 5794 5794 5795 5795 5795 5795 5795 5796 5796 5796 5796 5796 5796 5796 5796 5796 5796 5796 5796 5795 5795
5781 5781 5781 5782 5782 5782 5783 5783 5784 5785 5786 5787 5787 5788 5788 5789 5789 5789 5789 5790 5790 5790 5790 5790 5791 5791 5791 5791 5791 5791 5792 5791 5791 5791 5791 5791 5790 5790
5775 5775 5775 5776 5776 5777 5777 5778 5778 5779 5780 5781 5782 5783 5783 5783 5784 5784 5784 5784 5784 5785 5785 5785 5785 5785 5785 5786 5786 5786 5786 5786 5786 5786 5785 5785 5785 5785
5769 5769 5769 5770 5770 5770 5771 5772 5772 5773 5774 5775 5776 5777 5777 5778 5778 5778 5779 5779 5779 5779 5779 5779 5780 5780 5780 5780 5780 5780 5780 5780 5780 5779 5779 5779 5779 5779
5762 5762 5763 5763 5764 5764 5765 5766 5766 5767 5768 5769 5770 5771 5771 5772 5772 5773 5773 5773 5773 5773 5773 5773 5773 5773 5773 5774 5774 5774 5774 5773 5773 5772 5772 5772 5772 5772
5756 5756 5756 5756 5757 5758 5758 5759 5760 5761 5762 5763 5764 5765 5765 5765 5766 5766 5766 5766 5767 5767 5766 5766 5766 5767 5767 5767 5767 5767 5767 5766 5765 5764 5764 5765 5765 5765
5749 5749 5749 5750 5750 5751 5752 5753 5753 5754 5756 5757 5757 5758 5758 5759 5759 5759 5759 5759 5759 5759 5759 5759 5759 5759 5759 5760 5760 5760 5760 5759 5758 5757 5757 5757 5758 5758
5743 5743 5743 5743 5744 5744 5745 5746 5746 5747 5748 5749 5750 5750 5751 5751 5752 5752 5752 5752 5752 5752 5751 5751 5751 5751 5752 5753 5753 5753 5752 5752 5752 5751 5751 5751 5751 5751
5737 5736 5736 5737 5737 5738 5738 5739 5739 5740 5740 5741 5742 5743 5743 5743 5744 5744 5744 5745 5745 5744 5744 5743 5743 5744 5745 5745 5746 5746 5745 5745 5744 5744 5744 5743 5743 5743
5730 5730 5730 5730 5730 5730 5731 5731 5732 5732 5733 5733 5734 5735 5735 5735 5735 5736 5736 5736 5736 5736 5736 5736 5736 5736 5737 5738 5737 5737 5737 5737 5737 5736 5736 5735 5735 5735
5723 5723 5723 5723 5723 5723 5723 5724 5724 5724 5725 5725 5726 5726 5726 5726 5727 5727 5727 5727 5727 5727 5727 5727 5727 5728 5728 5729 5729 5729 5728 5728 5728 5727 5727 5726 5726 5725
5716 5716 5716 5715 5715 5715 5715 5716 5715 5716 5716 5716 5717 5717 5717 5717 5717 5717 5717 5717 5717 5717 5717 5717 5718 5719 5719 5719 5720 5719 5719 5718 5718 5718 5717 5716 5716 5715
5708 5708 5708 5707 5707 5707 5707 5706 5706 5706 5706 5707 5707 5707 5707 5707 5707 5707 5707 5707 5707 5707 5707 5707 5708 5708 5709 5709 5709 5709 5709 5708 5707 5707 5707 5706 5705 5704
5699 5699 5699 5698 5698 5698 5697 5697 5696 5696 5696 5696 5696 5696 5696 5696 5697 5697 5697 5697 5697 5697 5697 5697 5697 5697 5697 5697 5697 5697 5697 5697 5696 5696 5695 5694 5693 5692
5690 5690 5690 5689 5689 5688 5687 5687 5686 5686 5686 5686 5686 5686 5686 5686 5686 5686 5686 5686 5686 5686 5686 5686 5685 5685 5685 5685 5685 5685 5685 5684 5684 5683 5682 5682 5681 5680
5681 5681 5680 5679 5678 5678 5677 5677 5676 5676 5675 5675 5675 5674 5674 5674 5675 5674 5674 5674 5674 5674 5674 5674 5673 5672 5673 5672 5672 5671 5671 5670 5670 5669 5669 5668 5668 5667
5671 5670 5669 5669 5668 5667 5666 5666 5666 5665 5665 5664 5664 5664 5663 5663 5663 5663 5662 5662 5662 5661 5661 5660 5659 5659 5659 5659 5659 5657 5657 5656 5655 5655 5654 5654 5653 5653
5661 5660 5659 5658 5657 5656 5655 5655 5654 5654 5653 5653 5653 5652 5652 5651 5651 5651 5650 5649 5649 5648 5648 5647 5646 5645 5645 5645 5645 5644 5641 5640 5640 5639 5639 5638 5638 5637
5651 5649 5648 5647 5646 5645 5644 5643 5643 5642 5642 5641 5641 5640 5640 5639 5639 5638 5637 5637 5636 5635 5635 5634 5633 5631 5631 5630 5630 5630 5628 5626 5625 5624 5623 5622 5622 5622
5640 5639 5638 5636 5635 5634 5633 5632 5631 5631 5630 5629 5628 5628 5627 5626 5626 5625 5625 5624 5623 5622 5622 5621 5619 5618 5617 5616 5615 5615 5614 5612 5610 5609 5608 5608 5607 5607
5629 5628 5626 5625 5624 5623 5621 5620 5619 5619 5618 5617 5616 5615 5614 5614 5613 5612 5612 5611 5610 5609 5608 5608 5607 5605 5604 5602 5601 5600 5599 5597 5596 5595 5594 5593 5593 5592